RH
19 18 17 16 15 15 14 14 14 13 13 13 12 12 12 12 13 13 13 13 13 13 14 14 15 14 14 13 14 14 13 12 12 11 11 12 12 12 13 13 12 12 13 14 13 13 14 16 16 15 15 14 12 12 10 10 11 10 9 9 9 8 8 8 7 7 7 8 7 7 7 6 6 6 6 5 5 6 7 7 8 9 10 10 11 12 13 17
16 15 15 15 14 14 14 13 13 12 12 12 11 11 11 12 13 13 14 13 13 13 13 14 15 14 14 13 14 14 14 13 12 12 11 11 11 11 11 12 12 12 12 12 12 11 11 11 12 13 13 13 14 14 14 14 14 14 14 13 13 12 12 11 10 10 10 9 9 9 9 8 9 8 8 9 8 7 6 7 9 11 15 18 19 18 18 24
14 14 14 14 14 14 14 13 13 12 12 11 11 11 12 12 13 14 14 14 14 13 13 14 14 15 14 13 14 14 14 14 13 12 12 11 11 11 11 10 10 11 11 11 12 12 12 11 11 11 10 10 10 10 10 10 10 10 10 10 10 9 9 9 9 8 8 8 8 7 7 7 7 7 9 10 12 14 14 16 22 31 42 51 54 49 43 45
15 15 15 15 14 14 13 13 12 12 12 12 12 12 13 13 13 14 14 15 15 14 14 14 15 14 14 14 14 14 14 14 14 13 12 12 11 11 11 11 10 10 10 11 11 11 11 12 12 12 12 11 11 10 10 10 9 8 8 8 8 8 8 7 8 7 7 7 7 7 7 6 6 6 6 7 10 16 25 37 50 64 77 88 91 84 76 70
16 15 15 14 14 13 13 13 13 13 13 14 14 14 14 14 14 15 15 16 16 15 15 15 16 15 15 15 14 14 14 14 14 14 13 12 12 11 11 11 11 10 10 10 10 10 11 11 12 12 12 12 12 12 12 12 12 11 10 10 9 9 9 9 9 9 9 8 7 7 6 6 6 7 6 6 8 14 36 63 80 90 97 102 101 95 89 86
15 15 14 14 14 14 14 14 15 15 16 16 17 16 16 15 15 15 16 16 16 16 16 16 16 16 16 16 15 15 15 15 14 14 13 13 12 12 12 11 11 11 11 10 10 10 10 10 11 11 12 12 12 12 13 13 13 12 11 11 10 10 9 10 10 10 10 9 8 7 6 7 7 8 8 9 9 16 47 78 91 98 101 101 101 97 93 90
16 16 16 16 16 16 16 17 17 17 18 18 18 18 17 16 16 16 16 16 16 16 16 16 16 17 17 16 16 16 15 15 14 14 13 13 13 12 12 12 11 11 11 11 11 10 10 11 11 11 11 11 12 12 13 13 14 13 12 11 10 10 9 9 9 10 11 10 9 8 7 7 8 10 8 13 18 22 50 81 94 100 101 101 101 97 90 79
19 19 19 19 19 19 19 19 19 19 19 19 19 18 17 16 16 16 16 16 16 16 16 16 16 17 17 17 16 16 16 15 14 14 14 13 13 13 13 12 12 12 12 11 11 11 10 11 11 12 12 11 11 11 11 12 14 14 13 12 11 11 10 9 9 10 12 12 11 9 8 7 8 11 9 19 29 25 38 67 85 93 93 94 91 84 76 59
22 21 21 21 20 20 20 20 20 19 19 20 21 20 18 17 17 17 16 16 16 16 16 16 16 16 16 16 16 16 15 15 15 14 14 14 13 14 14 13 13 13 13 12 12 12 11 12 12 13 13 12 12 12 11 11 13 13 13 13 12 12 10 10 9 9 12 12 12 10 9 9 9 12 11 22 37 33 32 45 56 65 72 73 70 64 54 35
23 22 22 22 22 21 21 21 21 21 20 21 21 20 19 18 18 18 17 17 16 16 16 16 16 16 16 15 15 15 14 15 15 14 14 14 14 14 14 13 14 14 14 14 13 12 11 13 14 15 13 12 13 13 13 12 12 13 13 13 13 13 12 10 10 9 11 12 13 12 10 10 9 12 13 19 36 39 37 42 45 51 57 57 56 49 36 22
24 24 24 23 23 23 23 22 21 21 21 21 21 20 19 18 18 18 17 17 16 16 16 16 16 15 15 15 15 15 14 16 16 15 15 16 15 14 14 14 14 14 15 15 14 12 12 15 17 16 14 13 15 15 15 13 13 13 13 14 14 14 13 12 11 10 11 12 13 13 12 12 10 12 14 14 28 37 33 35 38 40 43 44 45 41 30 21
25 24 24 23 23 22 21 21 20 20 20 20 20 20 18 18 18 18 17 17 16 16 16 16 15 15 15 15 16 15 14 17 17 16 17 17 17 16 16 16 15 15 15 16 15 14 13 16 19 17 14 15 17 16 16 14 14 14 14 14 14 15 14 13 12 11 11 12 13 14 14 14 11 11 15 13 20 33 31 26 27 28 32 37 42 44 37 27
25 24 24 23 22 22 22 22 21 21 21 23 24 24 22 21 20 21 21 20 18 17 16 17 17 16 17 18 19 16 15 18 20 20 19 17 17 18 19 19 18 17 16 16 16 16 16 17 20 18 15 17 18 16 17 17 16 15 15 15 15 16 15 14 14 13 12 12 12 14 15 15 13 11 15 14 13 27 31 23 22 24 29 35 43 48 43 34
33 32 31 30 29 29 30 30 29 28 29 30 32 32 30 28 26 27 27 27 25 22 20 20 21 20 21 23 22 18 18 22 23 24 20 17 18 20 21 21 20 19 18 18 17 17 18 18 20 19 18 17 17 17 18 19 17 16 16 16 16 17 17 15 14 14 13 13 12 13 16 16 15 11 12 14 11 21 28 22 19 22 25 30 36 41 39 35
44 42 41 39 38 38 39 39 37 36 35 36 37 38 37 35 33 32 32 33 32 29 27 26 26 26 26 27 26 22 23 25 26 25 22 20 21 22 22 22 21 21 20 19 18 18 18 19 20 20 18 17 17 19 19 19 18 17 16 16 17 18 19 17 16 15 14 14 13 13 16 17 16 12 11 13 10 15 24 21 18 19 21 23 26 28 28 29
46 45 44 43 42 42 43 43 41 39 39 39 40 41 41 40 38 36 35 36 36 34 31 30 30 30 29 30 28 26 26 27 26 25 25 24 24 23 23 22 21 20 20 19 18 18 17 18 18 19 18 17 18 19 19 20 20 16 14 15 19 20 22 20 17 17 16 15 14 13 16 18 17 13 11 13 10 12 19 20 19 19 20 20 20 20 22 25
42 41 41 40 40 40 42 43 43 41 41 41 42 42 43 44 41 39 38 37 37 35 33 32 32 31 31 30 29 28 27 27 26 25 25 24 24 23 22 21 20 19 18 18 17 16 16 16 16 16 17 16 17 18 20 22 20 15 12 15 21 25 25 23 20 19 17 16 15 15 16 17 18 15 11 13 12 12 17 19 20 21 22 22 20 18 20 22
38 38 38 38 38 38 39 41 42 41 40 41 42 42 42 43 42 40 38 37 36 36 34 33 32 32 30 30 28 27 26 25 24 23 22 22 21 20 20 19 18 18 17 16 16 15 14 14 14 14 15 16 16 18 20 20 17 14 13 16 22 29 29 26 24 23 20 18 17 16 17 17 18 16 12 13 13 14 19 20 21 24 26 27 25 21 20 18
36 35 34 34 34 35 37 40 42 41 40 40 41 41 40 41 41 39 38 37 35 34 34 32 31 30 29 28 27 25 24 23 22 21 20 19 18 18 17 17 16 16 15 14 14 14 14 13 13 13 13 14 14 15 16 15 14 14 14 16 23 31 32 30 29 26 23 20 19 17 17 17 18 17 14 15 16 16 22 23 22 26 29 31 30 27 24 19
35 34 33 32 32 32 34 38 41 41 40 39 39 40 39 39 39 39 37 35 34 32 31 30 28 27 26 25 24 23 22 21 20 19 18 17 17 16 15 15 14 14 13 13 13 13 13 12 12 12 12 12 12 13 14 14 14 14 15 17 24 33 35 33 33 31 25 22 22 19 17 17 17 19 16 16 19 17 22 29 27 27 31 34 34 31 29 24
36 36 36 35 34 34 34 36 38 39 38 37 36 36 35 35 35 35 34 32 31 30 28 27 26 25 24 22 22 21 20 19 19 18 17 16 15 15 14 14 13 13 12 12 12 12 12 12 11 11 11 11 11 12 13 14 13 13 16 17 24 36 39 35 35 33 25 22 24 22 19 17 16 20 17 16 23 21 22 30 31 31 33 34 33 30 29 26
36 36 35 35 34 33 32 33 35 35 35 34 33 32 32 31 30 30 30 30 28 27 26 25 24 23 22 20 20 20 19 19 18 17 16 15 15 15 14 14 13 13 12 12 12 12 11 11 11 11 10 11 11 12 13 14 14 14 17 18 24 38 41 36 37 34 24 21 25 25 22 20 16 20 20 16 22 24 22 26 29 30 29 26 24 23 23 23
32 31 31 30 30 28 27 27 28 29 30 30 29 28 27 27 27 26 26 28 27 26 26 25 24 24 22 20 19 19 20 19 18 17 16 15 15 15 14 14 13 12 12 13 13 12 12 11 10 11 10 11 11 11 12 13 14 14 16 20 26 34 37 35 35 33 24 20 24 28 27 23 18 19 22 18 19 25 25 25 28 27 20 16 16 15 16 18
29 28 28 27 27 26 24 24 23 24 25 26 26 25 25 25 25 25 25 26 26 25 25 24 23 23 21 20 19 19 20 19 18 17 16 15 14 14 15 14 12 12 14 15 14 13 12 10 10 11 10 11 11 11 12 12 13 13 14 20 23 25 27 28 29 30 28 23 23 29 30 27 21 19 24 20 18 26 29 26 31 27 15 11 13 12 13 14
26 26 25 24 23 22 22 22 21 21 21 21 22 22 22 22 23 23 23 23 23 22 22 21 21 21 20 19 18 18 18 18 18 17 15 14 13 14 15 15 15 16 17 16 15 15 14 12 11 13 13 12 11 11 11 11 12 12 13 17 17 17 18 20 22 27 34 31 24 28 33 32 27 21 23 22 18 25 30 28 31 25 13 10 12 11 12 14
24 23 22 21 20 20 19 19 18 18 18 17 18 17 18 18 18 19 19 19 18 19 19 18 18 19 18 17 17 17 17 19 20 16 14 14 14 14 15 18 20 20 19 16 16 19 18 15 13 15 15 13 13 12 12 11 11 11 12 13 12 12 14 18 19 23 36 38 29 32 38 36 33 26 23 23 20 22 28 30 28 19 10 9 10 11 13 14
22 22 22 21 21 21 20 19 18 18 17 16 16 16 15 15 15 15 15 15 15 17 18 17 16 17 18 18 16 15 15 20 20 15 16 17 15 14 14 18 21 23 21 17 19 23 20 16 15 17 17 16 16 15 13 12 11 11 11 10 10 11 12 17 17 20 34 40 35 40 45 41 39 32 25 24 21 20 25 29 25 14 9 10 9 10 13 14
23 22 23 23 22 22 22 21 20 19 17 16 16 15 15 15 15 15 14 14 14 16 19 18 16 15 17 19 19 17 14 19 21 17 17 18 16 15 15 19 22 25 23 19 23 25 19 17 19 19 19 20 19 16 14 13 13 11 10 9 10 10 11 14 16 19 31 42 45 48 49 46 43 37 30 26 21 20 22 28 28 15 8 10 8 9 11 12
21 22 23 24 24 23 23 23 22 21 19 17 16 15 15 15 15 15 15 15 14 15 18 20 18 16 15 18 21 22 18 17 21 19 18 20 20 19 19 20 22 23 22 22 27 28 22 22 22 21 25 26 21 16 15 16 14 12 11 11 10 10 10 12 16 20 29 43 51 50 47 47 46 41 37 31 21 19 21 27 30 18 8 10 9 8 10 10
18 18 19 20 21 21 21 22 22 22 20 18 18 16 15 15 15 16 15 15 15 16 17 19 20 19 17 16 18 23 25 23 21 20 20 22 23 22 21 20 20 22 22 22 27 31 27 25 25 29 34 29 19 16 17 18 16 13 13 13 11 10 9 10 14 17 26 42 50 48 46 45 47 46 42 35 23 20 23 25 26 19 9 9 11 9 10 10
17 17 17 17 18 18 18 19 19 20 20 18 18 17 17 16 16 16 16 16 17 16 16 17 19 21 21 20 18 19 26 30 27 21 19 23 26 24 24 23 21 23 23 22 30 37 34 29 30 35 36 26 19 19 20 20 18 16 15 14 12 11 9 9 11 13 23 41 49 49 49 46 47 50 45 38 29 23 24 23 24 23 14 9 11 12 11 11
16 16 16 16 17 17 17 17 17 18 18 18 18 17 17 17 16 16 17 18 19 17 16 17 19 22 25 25 23 20 22 29 32 28 21 22 26 28 28 26 24 24 23 25 32 37 34 29 29 33 30 22 21 21 22 23 21 16 14 13 11 11 9 9 10 11 19 37 45 43 46 48 49 51 44 38 35 28 23 21 22 25 19 11 10 13 14 13
16 16 16 16 16 17 17 17 17 17 18 18 18 18 17 17 17 19 20 20 19 17 17 18 20 23 26 27 27 25 22 25 31 34 28 23 24 29 32 28 24 23 23 25 26 25 26 25 24 28 28 25 24 24 25 24 19 14 12 13 13 13 13 12 11 12 15 25 32 28 35 48 50 50 46 40 39 34 24 21 21 23 23 17 11 11 15 18
17 17 17 17 16 17 17 18 18 17 18 17 18 18 18 18 20 22 23 21 19 18 18 20 22 24 26 28 29 28 26 24 27 32 33 29 26 29 33 32 30 28 27 28 24 23 27 26 24 29 33 30 26 25 24 21 16 14 13 15 17 16 15 13 11 13 13 16 19 18 29 47 49 49 50 43 40 38 30 23 21 21 23 24 22 16 13 17
18 18 18 18 18 18 18 18 18 18 18 18 17 17 18 20 22 24 24 23 21 20 19 21 23 25 27 28 29 30 29 27 27 29 32 34 32 31 33 34 35 33 31 29 27 27 28 29 29 30 32 30 26 24 21 18 17 16 15 18 20 16 13 13 12 13 12 12 13 15 26 42 46 47 51 44 39 40 37 28 23 22 22 25 32 31 22 17
19 18 18 19 19 18 18 19 18 18 18 18 17 17 17 18 20 22 24 25 24 22 20 21 23 25 27 28 29 30 30 30 30 29 30 33 34 35 33 32 33 33 31 28 26 27 26 30 30 25 26 28 25 22 19 17 18 16 16 22 21 14 13 16 16 16 15 12 12 14 23 34 39 42 47 46 42 42 43 37 28 24 24 24 29 35 38 31
20 18 18 19 19 18 18 18 18 18 17 17 17 16 17 17 17 19 22 25 27 25 22 21 22 24 25 27 29 30 30 32 33 31 30 30 32 35 35 33 30 31 31 29 28 27 26 29 27 21 23 25 22 20 17 16 18 16 19 23 19 15 17 19 19 18 17 15 12 12 18 25 31 36 41 46 46 44 45 44 38 29 25 27 26 26 35 42
18 16 16 17 18 18 17 17 17 17 17 17 16 15 16 16 16 17 18 23 28 28 25 22 21 22 23 26 29 31 31 32 34 34 32 29 30 33 35 35 32 30 30 31 31 30 31 33 30 25 28 28 23 21 19 17 19 19 21 22 18 18 23 22 20 20 19 16 13 12 15 20 25 30 35 41 44 44 43 45 44 36 27 27 31 26 24 33
13 12 12 12 14 15 15 15 15 15 15 16 16 15 15 15 15 16 16 19 24 27 28 25 21 20 21 24 27 31 32 31 32 34 34 31 29 30 32 33 34 32 29 29 31 32 34 37 34 30 31 31 25 22 21 21 21 21 21 21 19 21 25 23 20 23 22 18 16 15 14 17 21 24 28 34 40 40 39 41 43 41 33 27 28 29 25 24
10 10 10 9 10 11 12 12 13 12 13 14 14 14 14 14 14 15 15 17 19 23 27 27 24 21 20 22 25 29 32 32 31 32 33 32 30 30 30 30 31 32 30 30 30 31 34 36 35 31 29 29 25 23 25 27 25 23 21 20 20 22 23 21 20 23 23 20 18 16 15 15 17 20 22 27 35 38 37 37 38 39 39 33 28 26 27 26
9 10 10 10 10 10 10 11 11 11 11 11 11 12 13 14 14 14 14 15 17 19 22 26 27 24 21 21 23 26 29 32 32 31 31 32 32 31 30 29 28 28 29 30 29 29 31 34 36 32 26 25 24 23 26 29 28 25 22 19 19 20 19 18 20 22 23 22 21 18 17 17 18 19 19 21 27 35 38 38 37 37 39 40 35 28 24 25
6 7 8 8 9 10 10 11 12 11 11 10 10 10 10 11 12 13 13 14 15 16 18 22 26 26 23 21 21 24 27 30 32 31 30 31 32 32 31 30 28 26 26 28 29 28 29 31 36 34 28 25 26 25 25 27 26 24 22 19 18 18 17 19 23 25 25 25 26 24 22 23 25 25 23 20 20 26 34 39 42 41 42 44 43 37 29 25
3 3 4 5 6 7 8 10 11 13 13 12 11 10 9 9 10 11 12 12 13 15 16 18 21 24 24 22 20 22 24 27 30 31 30 30 31 32 31 30 29 27 26 26 27 28 28 29 33 36 32 26 26 26 25 26 25 22 21 20 19 19 19 22 25 24 24 25 30 34 28 24 29 32 29 26 21 19 24 32 40 45 46 47 48 45 39 34
2 2 2 2 3 4 5 6 8 10 12 13 13 12 11 10 9 8 9 10 11 13 14 16 17 21 24 24 21 21 22 24 26 28 30 29 29 31 32 31 30 28 27 26 25 26 27 27 29 34 32 26 24 25 23 24 23 20 21 20 19 21 21 23 24 22 25 28 33 41 34 23 29 34 31 29 25 20 19 22 31 40 45 48 49 49 47 44
2 2 2 2 2 2 2 3 4 6 8 11 13 14 13 13 12 10 8 8 9 11 12 14 16 18 21 24 23 21 20 22 24 25 28 29 28 29 31 32 31 29 28 27 25 25 26 27 27 30 31 26 23 23 23 24 23 21 21 21 21 22 20 22 22 20 26 29 32 40 35 23 27 31 29 30 28 23 20 18 21 30 39 45 47 48 49 49
1 1 1 1 2 2 2 2 2 3 5 7 10 12 14 15 15 13 10 8 7 9 10 12 14 16 18 22 24 23 20 20 21 22 24 27 28 27 28 30 31 30 29 27 26 26 25 26 26 28 30 27 25 24 24 25 24 22 22 22 23 22 20 21 19 18 25 25 27 38 33 22 25 28 27 29 28 25 23 19 18 20 27 36 42 45 48 48
1 1 1 1 1 1 2 2 2 2 3 4 5 8 11 14 15 16 15 12 9 7 8 9 11 14 16 19 22 24 22 20 19 20 21 24 27 26 26 27 29 30 30 28 27 26 25 25 25 26 27 26 25 25 24 24 24 23 22 22 23 21 20 19 16 19 23 20 29 43 34 20 22 24 24 26 26 25 24 21 20 18 18 23 30 37 42 44
1 1 1 1 1 1 1 1 2 2 2 3 3 5 7 10 14 16 16 16 13 9 7 7 8 10 13 16 19 22 23 21 19 19 19 22 25 26 25 25 26 28 29 29 28 27 26 25 25 25 26 25 25 25 24 23 23 23 21 22 22 20 20 19 17 20 20 18 32 42 29 18 19 19 20 24 23 23 24 23 23 22 20 20 21 24 30 33
1 1 1 1 1 1 1 1 2 2 2 2 3 3 4 6 10 13 15 17 17 13 9 8 7 8 10 13 17 20 22 22 20 18 18 19 22 25 25 24 24 25 27 29 29 28 27 26 25 25 25 25 24 24 24 22 22 22 22 22 22 20 20 19 19 22 21 20 30 32 21 19 21 16 15 19 20 22 24 24 26 26 25 25 22 21 22 24
1 1 1 1 1 1 1 1 1 1 1 2 2 2 3 4 6 9 12 15 17 17 14 10 8 7 7 10 13 17 19 21 21 19 17 18 19 22 24 24 23 22 24 26 28 29 28 27 26 25 24 25 24 23 23 21 21 22 22 22 23 21 21 20 20 23 24 24 30 29 22 24 26 22 17 15 16 21 23 24 26 27 27 27 27 24 22 21
1 1 1 1 1 1 1 1 1 1 1 1 2 2 2 3 4 6 8 12 15 17 17 14 10 9 8 7 9 13 17 19 21 20 18 17 17 18 21 23 24 23 21 22 25 27 28 27 26 26 24 24 24 24 22 20 19 20 21 22 23 23 22 21 22 23 24 27 32 31 26 28 34 34 24 15 14 17 19 21 23 25 26 25 26 26 24 23
1 1 1 1 1 1 1 1 1 1 1 1 1 2 2 2 3 4 5 8 11 14 17 17 14 11 9 8 7 9 13 17 20 21 20 18 16 16 18 20 22 23 22 20 21 24 26 27 27 27 25 24 25 24 23 21 19 18 20 22 23 23 24 23 22 23 24 26 30 31 29 32 36 35 27 19 16 16 15 16 18 22 24 23 23 25 25 25
Wind_Speed
33 32 32 31 30 30 29 28 27 25 24 23 22 21 21 20 19 18 17 16 16 15 13 12 12 12 12 11 11 11 10 9 8 7 6 6 4 2 1 1 1 2 3 4 4 5 5 4 4 5 7 9 11 14 15 17 18 20 21 22 23 24 26 27 28 28 30 31 32 33 34 35 36 37 38 38 39 38 38 37 35 34 32 30 29 27 26 24
34 34 33 33 32 31 30 29 28 27 26 25 24 23 22 21 21 20 19 19 18 17 16 14 14 14 14 13 13 13 12 12 10 9 8 7 6 5 4 2 2 1 1 2 3 4 4 5 4 4 5 6 7 9 10 11 12 14 15 16 17 18 20 21 22 22 24 25 26 27 29 31 32 35 36 38 39 39 38 36 34 31 29 27 26 25 23 21
36 35 34 34 33 32 31 30 29 28 27 26 25 24 23 23 22 21 21 20 20 20 19 17 16 16 16 15 15 15 15 14 14 12 11 10 9 8 7 6 5 4 4 3 3 4 4 5 5 6 6 7 7 8 9 10 11 12 12 12 13 14 14 15 16 17 17 18 19 21 22 23 25 28 31 34 36 37 35 32 29 26 23 22 21 21 19 17
37 36 35 35 33 32 32 31 30 29 28 27 26 25 25 24 23 23 22 22 22 22 21 20 19 19 19 18 17 17 17 17 17 16 15 14 13 10 9 10 8 7 6 7 6 6 6 6 7 7 8 8 9 9 10 10 12 13 12 12 13 13 13 13 14 14 14 15 16 17 18 18 19 20 23 27 30 31 30 27 23 19 16 15 15 15 15 15
37 36 36 35 34 32 32 31 30 29 28 28 27 27 26 25 25 24 23 23 23 23 23 22 22 22 22 21 20 20 20 20 19 19 18 18 17 14 12 13 12 10 9 9 9 9 9 9 9 9 10 10 10 11 11 11 13 14 14 13 14 14 13 13 13 13 13 13 15 16 16 16 15 16 17 19 22 24 22 18 15 12 11 12 12 13 14 15
37 36 35 34 34 33 32 31 31 30 29 29 29 29 28 27 26 25 25 25 25 25 25 25 24 25 25 25 24 23 23 22 22 22 22 21 21 19 17 16 15 14 13 12 12 12 12 12 12 12 12 12 12 12 12 12 13 14 15 15 15 15 15 14 14 13 12 13 14 15 15 15 14 15 15 16 17 17 15 13 11 10 10 11 12 13 14 16
37 36 35 35 34 33 33 32 32 31 31 30 31 31 31 30 28 27 27 27 27 27 27 27 27 27 28 28 27 26 26 26 24 24 25 24 23 23 21 19 19 18 17 16 15 14 14 14 14 15 15 15 15 15 14 14 14 15 16 16 16 16 16 16 15 13 12 13 15 15 15 15 15 15 15 15 15 14 14 13 12 11 11 12 13 14 16 17
37 37 36 36 35 35 34 34 34 33 33 33 34 34 33 32 31 30 30 30 29 29 30 30 29 29 30 30 30 29 29 28 27 26 27 26 26 26 25 24 22 21 20 20 19 18 16 15 16 16 17 18 17 17 17 16 15 16 16 17 17 17 18 18 16 14 12 13 14 15 16 15 15 15 14 14 13 12 11 13 15 15 14 14 13 15 16 16
39 39 39 38 38 38 37 37 37 36 36 36 38 38 37 35 34 34 34 33 32 32 32 33 32 32 32 32 32 32 32 30 30 29 29 29 28 28 28 27 26 25 24 23 23 22 19 17 18 19 20 20 19 20 20 19 18 18 17 18 17 18 20 19 18 15 12 12 13 14 15 15 15 15 13 12 11 8 5 6 10 12 12 10 10 11 13 12
42 42 42 42 41 41 41 40 40 39 39 40 41 42 40 38 37 38 38 37 36 35 35 35 35 34 34 33 34 35 34 32 32 32 31 31 31 30 30 31 30 28 27 26 27 26 22 20 20 22 23 21 20 21 22 21 20 19 19 18 18 18 20 21 19 17 14 12 11 13 15 15 15 16 13 10 9 6 3 1 3 5 5 4 6 8 9 10
46 45 45 45 45 44 44 44 43 42 42 43 44 44 43 41 40 41 41 40 39 38 38 38 38 37 36 36 36 38 36 33 35 35 34 33 33 33 33 33 33 32 30 30 30 29 26 23 23 25 26 23 22 23 24 22 21 20 20 19 18 18 20 21 21 19 16 13 11 12 14 15 15 16 14 10 8 5 2 1 3 4 2 1 4 6 8 10
49 48 48 48 47 47 47 46 46 45 44 45 46 46 45 43 43 43 43 43 42 41 40 40 40 39 39 38 39 40 37 35 37 37 36 36 35 34 34 34 34 34 33 32 32 31 29 26 27 28 28 26 25 25 25 25 23 21 21 20 19 19 20 21 21 20 18 15 13 12 13 14 15 16 15 11 8 5 2 1 3 4 3 1 4 6 9 11
50 50 50 49 49 48 48 48 48 46 46 46 48 48 46 45 45 45 45 45 44 44 43 42 42 41 41 40 41 41 38 37 38 39 39 39 37 35 34 34 35 36 35 34 33 32 31 30 30 30 30 29 28 27 27 27 25 23 22 22 21 20 21 21 20 20 19 17 15 12 13 14 14 15 15 10 7 5 2 2 4 5 3 2 6 8 11 12
52 52 52 51 51 50 50 50 50 48 48 48 49 49 48 48 47 47 46 46 46 46 45 44 43 43 42 41 43 42 39 38 39 40 42 40 37 36 36 35 36 36 36 36 35 34 33 32 32 31 32 32 30 29 29 29 28 25 24 23 22 21 22 22 20 20 19 18 16 13 13 14 14 14 14 10 5 4 2 2 5 6 4 4 7 10 12 13
53 53 53 53 52 52 51 52 51 50 49 50 50 50 50 49 49 48 48 47 47 47 46 45 44 44 43 42 44 42 39 39 41 42 42 40 38 38 38 38 37 38 38 38 38 37 36 35 35 34 34 33 31 32 32 31 30 29 26 24 23 22 22 23 21 20 18 17 17 14 12 13 14 13 13 10 4 3 1 2 5 5 4 5 7 10 12 13
55 55 54 54 54 53 53 53 53 52 51 51 52 51 51 51 51 50 49 49 49 48 47 46 46 46 45 45 45 43 41 43 44 43 42 42 41 41 41 40 40 40 40 41 41 41 40 39 39 37 36 35 34 35 34 33 33 31 28 25 24 23 24 24 23 21 18 16 16 14 12 13 14 14 13 10 5 2 0 3 5 5 6 6 7 9 11 14
57 57 57 57 56 56 55 56 56 55 54 53 54 53 53 53 53 52 52 51 51 51 50 49 48 48 47 47 47 45 45 46 46 45 45 45 45 45 44 43 42 43 43 44 45 44 44 43 43 41 39 38 37 37 37 38 36 32 28 26 25 25 26 26 24 22 19 16 15 14 13 13 14 14 13 10 5 1 1 3 5 5 7 7 8 9 11 14
61 61 61 60 60 59 58 59 59 58 57 56 56 56 55 55 55 55 55 55 55 54 53 52 52 51 51 50 50 49 48 48 48 48 48 48 48 47 46 46 45 45 46 46 47 46 46 46 45 45 44 42 41 41 42 42 37 32 30 28 26 27 28 27 27 24 21 17 15 13 13 13 14 14 13 11 7 2 0 3 5 6 7 8 8 10 11 14
63 63 63 62 62 61 61 61 62 61 60 59 59 59 58 57 57 58 58 58 58 57 56 56 55 55 54 52 52 52 51 51 51 50 50 50 50 49 48 48 48 47 47 47 47 47 47 48 48 49 48 46 45 45 47 45 39 34 32 30 29 30 29 29 29 27 23 19 15 14 13 13 13 13 12 11 8 4 0 3 6 7 7 8 8 9 11 13
65 65 66 65 65 64 63 63 64 63 63 61 61 61 60 59 59 60 61 61 60 59 59 59 58 58 57 55 54 54 53 52 52 52 51 51 51 50 49 49 48 48 47 46 46 46 47 49 52 52 49 47 46 47 48 47 42 38 36 33 32 32 32 30 30 29 25 21 17 15 14 13 13 11 11 11 9 5 1 3 6 7 7 8 8 9 10 13
69 69 70 69 68 67 65 65 66 66 66 65 64 63 63 62 62 62 63 63 63 62 61 61 61 61 60 56 54 54 53 52 53 52 51 50 50 49 48 47 47 47 45 44 45 46 48 51 51 49 47 46 46 47 49 49 46 41 40 38 35 36 36 32 32 32 28 23 19 16 14 14 13 10 10 10 8 5 1 4 5 7 8 8 8 9 11 13
71 71 71 71 71 70 67 66 67 68 68 67 66 66 65 65 64 64 64 65 66 64 63 63 62 63 62 57 54 53 51 53 53 51 49 47 46 47 47 45 45 45 41 41 45 46 48 49 46 45 46 46 47 48 50 51 49 45 43 42 40 41 39 34 34 33 30 25 21 17 15 14 13 10 10 10 8 5 2 4 5 6 8 9 10 10 11 13
74 74 74 74 74 73 71 70 70 70 70 70 70 69 68 68 67 66 65 66 67 65 64 65 62 63 63 57 53 51 50 52 52 49 48 45 45 46 46 45 44 42 39 42 45 46 47 45 42 44 46 46 48 49 51 51 50 48 47 46 45 45 41 36 35 33 32 28 24 19 15 15 15 10 10 11 10 7 3 4 5 5 8 10 11 11 12 14
75 76 76 76 77 77 75 73 72 71 72 73 72 71 70 69 69 68 66 65 67 66 65 64 62 62 63 57 51 48 49 52 51 50 48 45 45 44 45 45 42 39 40 44 44 45 46 43 40 42 44 45 47 48 49 51 52 51 49 50 51 48 43 38 35 33 34 32 27 22 17 17 16 12 11 12 10 8 5 5 6 6 9 12 12 12 12 13
76 76 76 76 77 78 77 75 74 73 73 73 73 72 71 71 70 69 67 66 66 68 67 64 62 63 62 58 52 50 50 51 52 51 48 46 45 43 44 44 41 40 43 44 43 44 45 41 39 41 43 44 44 45 48 50 51 51 51 53 53 49 44 40 36 34 35 34 30 25 21 20 18 14 14 14 11 10 8 7 8 8 9 12 12 12 11 13
78 77 77 77 77 79 79 77 76 75 74 74 74 73 73 72 72 70 69 68 66 69 69 65 63 63 63 60 56 53 50 51 55 52 46 47 47 44 43 42 41 43 45 44 41 42 44 41 39 40 42 42 42 44 47 47 47 49 51 52 51 48 44 41 38 35 35 36 32 27 25 23 20 17 16 16 14 12 10 9 10 10 10 10 11 12 12 13
81 80 80 80 79 80 81 80 80 78 76 76 75 75 75 74 74 73 72 70 68 69 70 68 65 63 62 61 59 57 52 52 56 52 46 49 50 45 42 42 43 45 47 44 39 41 43 40 37 39 40 40 42 44 44 41 43 46 47 47 47 47 45 43 40 35 35 36 32 29 28 26 24 21 18 18 17 14 13 11 11 11 11 10 11 12 13 13
84 83 82 82 82 82 82 82 82 81 79 78 77 76 76 76 75 75 74 72 70 69 69 69 68 64 62 61 61 60 56 54 55 52 50 52 51 46 43 43 45 47 47 41 38 41 42 37 36 37 36 39 42 42 39 38 41 43 41 41 44 45 44 43 40 36 37 35 32 31 30 29 29 25 20 21 20 17 15 14 13 13 12 12 12 13 14 14
85 85 84 84 84 84 84 84 85 84 82 80 79 77 76 76 76 76 76 74 72 70 68 68 68 67 64 62 61 61 59 56 54 53 52 53 52 49 46 46 47 47 46 40 39 42 40 36 36 33 33 37 40 38 36 38 41 39 37 38 41 43 43 43 40 39 39 35 34 36 34 34 33 27 24 25 23 19 16 16 16 16 16 14 13 13 14 14
87 86 86 86 86 87 87 87 87 87 86 84 82 80 78 77 77 77 76 74 72 71 70 69 69 68 66 65 63 62 61 59 57 54 53 54 54 52 50 50 48 46 45 42 41 42 40 37 34 31 33 38 38 36 35 37 37 35 35 37 38 39 41 41 41 42 40 37 41 42 38 38 35 31 31 29 24 20 19 19 19 19 19 17 15 14 15 15
86 86 86 85 87 88 88 89 88 88 89 88 86 84 82 80 78 78 75 73 74 73 71 71 70 69 68 67 65 63 63 61 59 57 54 55 56 54 51 50 48 46 45 43 42 44 44 39 35 34 37 39 36 34 33 33 33 33 34 35 35 35 36 38 40 42 42 46 50 46 41 40 37 36 36 31 25 23 24 23 21 20 22 20 18 16 16 17
86 86 85 85 86 87 87 88 89 89 89 89 89 87 86 83 81 77 73 74 76 75 73 72 71 70 69 68 67 65 64 63 62 59 56 56 56 55 54 52 51 49 47 46 48 50 48 43 40 39 40 39 36 33 31 29 31 33 33 33 32 32 32 34 38 42 48 55 54 46 42 43 42 40 38 32 28 27 27 25 22 22 24 23 21 19 18 18
89 88 87 87 86 87 87 88 88 88 88 88 89 88 88 86 82 77 75 77 78 76 75 74 72 72 71 70 69 68 66 65 64 62 59 57 56 56 56 55 53 50 48 50 52 51 48 45 42 40 41 40 37 34 32 30 32 32 31 29 28 28 29 32 36 42 50 56 52 44 42 45 45 43 39 35 32 30 27 27 26 24 25 25 24 21 20 19
91 90 89 89 89 88 89 89 89 89 89 89 88 89 89 86 82 79 78 79 78 77 77 75 75 74 73 72 71 70 69 67 66 64 62 59 58 58 58 56 53 51 50 52 51 49 47 44 42 41 42 42 40 38 36 33 33 31 27 24 24 26 29 31 34 38 46 51 48 42 42 46 49 46 42 38 35 32 29 28 28 27 26 26 26 25 24 22
93 92 91 91 92 91 90 90 91 90 91 90 90 89 88 86 84 83 81 80 79 78 78 78 78 77 76 74 73 73 72 70 68 66 65 63 60 60 60 59 57 55 54 53 51 50 48 46 46 46 45 43 42 41 39 36 33 30 25 21 25 28 27 28 30 33 39 43 44 43 44 51 54 50 43 40 37 35 32 31 30 29 27 26 27 28 28 26
95 94 93 92 92 92 92 92 92 92 92 92 92 90 88 87 88 86 84 82 80 79 80 81 81 80 79 77 75 75 74 72 71 69 68 66 64 63 63 62 60 57 55 52 50 50 49 49 50 49 46 45 45 43 40 36 34 31 25 24 28 26 22 25 28 30 32 37 42 46 48 52 55 50 45 41 40 38 36 34 33 32 30 27 28 30 30 30
97 97 96 94 94 94 93 93 92 92 93 93 92 91 90 90 89 88 86 84 82 81 82 83 84 83 82 79 77 77 76 75 74 72 71 69 67 65 65 63 60 58 55 52 50 49 48 50 51 47 47 48 47 43 37 33 32 29 27 29 28 22 20 25 27 28 30 34 39 46 51 52 51 50 48 45 44 43 41 39 36 34 32 30 30 31 31 31
101 101 99 98 97 96 95 95 93 93 93 93 93 92 91 90 89 88 87 86 86 84 83 84 85 85 84 82 80 79 78 77 77 76 74 71 69 67 66 65 62 59 56 53 52 51 50 51 50 48 48 49 45 41 34 30 28 29 30 30 25 20 22 25 26 27 30 32 35 43 51 53 49 50 52 50 48 47 44 42 39 36 34 34 34 32 31 31
105 104 103 102 102 100 99 97 96 95 94 94 94 93 92 91 90 89 88 88 88 87 87 86 86 86 86 84 83 82 81 80 80 79 77 74 71 69 68 66 64 61 57 55 55 54 53 54 53 52 51 49 44 39 33 30 31 31 32 30 28 27 27 26 26 26 28 31 35 40 48 53 50 50 53 52 49 47 45 42 40 38 36 37 37 35 32 31
107 107 106 105 105 104 102 100 99 98 96 95 95 94 93 92 91 90 89 89 89 90 90 89 88 87 87 87 86 85 84 83 82 81 79 76 73 72 71 69 66 63 60 59 58 57 56 56 55 55 53 49 44 40 36 36 35 34 33 32 31 32 31 29 28 28 29 32 35 38 43 48 50 50 52 53 51 48 46 44 42 40 38 37 38 36 35 33
108 108 108 108 108 107 104 103 103 102 100 98 97 95 94 93 93 92 90 90 90 91 91 91 90 89 89 89 88 88 87 86 85 84 81 79 76 75 73 71 69 66 64 63 62 60 58 57 57 57 54 49 46 44 44 42 40 38 36 34 33 32 31 29 28 29 31 32 34 36 38 40 43 46 49 52 53 49 47 46 44 41 39 38 37 37 36 35
105 105 105 106 108 108 106 105 105 104 103 101 100 98 96 95 94 93 92 91 91 91 91 92 93 92 91 91 91 90 90 89 89 87 84 81 79 77 76 75 73 69 67 66 65 62 60 59 59 59 56 52 50 49 48 45 43 41 37 34 32 30 27 26 26 28 29 28 28 29 32 33 33 36 39 45 51 51 48 47 45 44 41 39 38 37 36 36
95 95 96 99 102 103 104 105 105 106 106 105 103 101 99 97 95 94 94 93 91 91 92 92 94 94 93 93 93 93 93 92 92 89 86 84 81 80 79 78 76 74 71 69 67 65 64 62 62 62 60 57 54 53 51 48 45 41 37 35 32 30 28 27 27 28 26 24 22 21 27 31 27 26 29 33 42 47 49 49 48 47 45 43 42 41 38 37
83 83 83 86 90 94 97 99 102 104 107 107 106 104 102 100 98 96 95 94 92 92 92 92 93 94 95 96 95 95 95 95 94 92 89 87 84 83 81 80 80 77 75 72 69 68 67 64 64 64 63 60 57 55 52 49 45 41 38 37 34 33 33 29 27 26 23 22 20 18 26 30 26 24 24 25 32 40 45 48 50 50 49 47 46 44 42 41
73 74 73 73 76 81 85 90 94 98 103 106 108 107 105 104 102 100 97 95 94 93 93 92 92 93 95 97 97 97 98 98 97 95 92 90 87 85 84 83 82 80 78 76 73 71 69 67 66 66 65 62 58 55 52 50 47 43 41 40 38 36 35 31 29 28 24 22 21 19 28 32 28 26 25 24 26 32 39 45 49 51 51 50 49 47 45 45
63 64 66 65 66 70 74 78 83 89 95 100 104 107 107 107 105 104 101 98 95 94 94 92 92 93 95 97 99 100 100 100 99 97 95 93 91 88 86 85 85 83 81 79 76 74 72 70 68 67 66 63 61 58 56 54 51 48 46 44 42 39 37 34 32 30 25 23 22 23 31 34 30 27 26 25 25 28 33 38 43 48 50 51 51 49 48 48
56 56 58 58 59 61 65 68 72 78 85 92 98 102 105 108 108 107 105 102 99 96 94 93 93 94 95 96 99 101 102 102 101 99 97 95 93 91 89 88 87 86 84 82 80 78 75 73 70 69 68 66 64 62 60 58 54 51 50 48 46 43 41 37 35 32 29 27 24 26 32 33 31 29 26 26 26 27 29 32 36 41 45 49 51 51 50 50
51 51 51 52 53 55 57 60 63 68 75 83 89 95 100 104 108 108 108 107 105 100 95 94 94 94 94 96 98 101 104 105 103 102 99 97 96 94 92 90 89 87 86 85 83 81 79 76 73 71 69 67 66 65 63 60 58 55 53 51 49 47 44 41 39 36 34 30 29 31 31 29 30 29 27 27 26 25 26 27 29 32 36 41 45 48 50 50
47 46 45 46 49 50 51 54 57 61 67 73 80 87 92 98 103 107 109 109 109 105 98 95 95 94 94 95 98 101 104 105 105 103 101 99 98 97 95 93 91 89 88 87 86 84 82 80 77 74 71 69 68 68 66 64 61 58 55 53 52 50 47 45 43 40 37 34 33 33 28 26 29 29 29 28 26 24 24 24 25 27 29 32 36 41 45 47
43 42 41 41 44 46 47 48 51 55 60 66 71 78 84 90 97 103 107 109 110 110 105 99 96 96 96 96 97 99 102 104 105 104 103 102 101 99 98 96 94 92 90 88 88 87 85 83 80 76 74 72 71 70 69 67 64 61 59 56 55 53 50 48 45 43 40 37 36 34 29 26 30 33 33 31 27 25 25 25 25 26 27 28 30 34 39 42
40 39 38 38 39 41 43 45 47 50 55 60 64 69 75 82 89 96 102 107 109 111 111 105 99 97 97 97 97 97 99 101 104 104 104 104 103 102 101 99 97 94 92 90 89 88 88 85 82 80 77 75 73 72 71 69 67 65 62 60 58 55 53 51 49 47 44 41 40 37 32 31 35 38 38 35 30 28 28 27 26 26 27 29 30 31 34 38
37 36 36 35 35 36 38 41 43 46 50 54 58 62 67 74 81 89 96 103 107 110 112 110 105 100 98 98 97 96 97 99 102 104 105 104 104 103 102 101 99 97 94 92 90 89 89 87 85 83 80 77 76 75 73 72 71 67 64 62 60 58 57 55 53 51 48 45 42 39 37 41 45 44 42 39 34 31 32 31 30 28 28 29 30 31 32 33
Wind_Direction
270 271 272 272 273 273 273 273 273 273 273 273 272 273 272 269 268 266 266 266 268 271 274 280 287 292 297 302 307 312 315 321 329 340 347 346 347 358 57 120 136 130 134 138 137 137 143 155 178 199 217 229 236 241 243 245 249 253 255 257 260 261 263 265 266 267 268 269 270 271 271 271 271 271 271 271 271 272 273 273 274 275 277 279 281 282 283 283
269 269 270 271 271 272 272 272 272 271 271 270 270 270 269 267 265 264 264 265 266 268 270 272 277 282 286 291 295 299 303 306 310 315 319 320 318 317 312 294 264 242 203 185 179 173 173 178 184 199 210 223 234 241 245 248 250 253 256 258 261 263 265 267 269 270 271 272 273 273 274 274 273 272 271 271 270 270 271 272 274 276 279 281 282 282 282 282
268 269 269 270 270 271 271 271 271 271 270 270 269 267 266 264 263 262 262 263 265 266 268 270 272 275 278 283 286 290 293 296 299 301 302 300 299 300 300 295 286 277 273 260 236 218 213 208 211 219 223 228 235 243 248 251 253 254 255 255 257 260 263 267 270 272 275 278 280 280 279 278 277 276 274 272 270 270 270 271 272 276 280 282 283 282 280 276
268 269 269 269 269 269 269 269 269 269 270 269 268 267 264 262 261 260 260 261 264 265 267 269 272 273 274 277 280 283 286 290 292 292 292 291 289 288 289 287 284 279 274 268 260 251 243 237 231 234 239 240 241 247 252 257 260 260 259 259 260 260 261 267 271 275 282 288 290 288 285 284 285 285 282 278 274 271 269 270 272 276 280 281 280 276 270 265
268 268 268 268 268 268 268 268 268 268 268 268 268 266 264 261 260 258 258 260 261 264 266 268 271 273 274 275 276 277 280 283 285 286 285 286 285 284 283 280 278 276 271 266 263 262 259 255 250 247 248 249 249 252 256 261 265 266 267 266 267 267 268 271 275 282 291 296 296 294 292 295 300 303 300 291 282 274 268 266 267 269 270 267 260 257 255 257
266 266 266 267 267 267 267 267 267 267 267 267 266 265 263 261 259 258 258 258 259 262 263 265 268 271 273 274 274 275 276 277 278 280 280 281 282 282 279 276 274 272 268 265 262 263 263 263 265 262 260 258 257 258 260 263 267 270 272 273 274 275 276 277 279 288 299 304 304 304 305 312 320 323 318 309 297 281 267 256 249 246 250 252 252 253 256 258
265 265 265 266 266 266 266 266 267 267 267 267 266 265 264 262 260 260 258 258 258 260 262 263 264 267 270 271 272 273 272 272 273 274 276 277 278 278 277 274 272 270 268 266 262 260 260 263 267 268 268 266 265 265 266 267 269 272 275 277 279 281 282 283 285 293 306 312 313 313 315 324 334 337 329 320 306 287 266 250 237 231 237 246 252 258 260 258
265 265 265 265 265 265 266 266 266 266 267 267 267 266 265 264 263 262 261 259 258 259 261 262 262 264 266 268 270 270 269 270 270 270 271 273 274 274 275 273 271 270 268 267 264 261 258 260 264 268 268 267 269 270 270 271 273 275 277 280 283 286 287 288 290 297 308 316 320 319 322 332 342 345 336 323 315 299 272 251 238 232 234 241 251 259 260 251
265 265 265 265 266 266 266 266 266 266 266 267 267 267 266 266 265 264 263 261 260 260 261 262 262 262 264 265 267 267 267 268 268 267 267 269 269 270 271 272 270 269 268 267 267 264 260 259 262 265 264 262 266 269 269 271 273 276 278 281 284 287 288 290 293 297 305 315 323 322 326 336 345 350 339 324 322 321 301 254 234 229 230 236 250 261 256 236
264 265 265 265 266 266 266 266 266 266 267 267 267 267 267 267 267 266 265 263 262 261 261 262 262 262 262 263 264 264 265 267 267 267 266 266 266 266 267 269 269 268 268 267 267 267 265 261 260 261 259 259 264 267 268 268 271 274 277 280 283 286 288 290 293 296 302 311 321 323 326 337 346 350 342 322 317 325 348 85 168 184 200 228 251 254 245 219
265 265 265 266 266 266 267 267 267 267 267 267 268 267 267 267 267 266 266 265 264 262 262 262 262 262 262 262 263 263 263 265 266 266 266 265 265 265 265 267 269 268 267 266 266 267 266 262 259 258 258 258 260 264 266 265 265 269 273 277 281 284 286 289 292 295 299 305 314 320 326 337 344 347 344 324 305 310 334 95 127 127 125 242 251 239 223 206
266 266 266 266 266 266 267 267 267 267 267 267 268 268 267 267 266 266 266 266 265 264 263 263 263 262 262 262 262 262 263 264 265 265 265 263 264 264 265 265 266 267 266 265 265 266 266 262 258 258 259 259 257 259 262 263 262 263 268 273 277 280 282 285 289 292 297 301 307 316 324 335 342 346 347 331 300 297 324 49 91 86 72 200 224 217 204 194
266 266 266 266 266 267 267 267 267 267 266 267 267 268 267 267 266 266 266 266 266 265 264 263 263 263 263 263 262 262 262 263 264 264 263 262 262 264 264 264 264 265 266 265 265 265 264 261 258 258 260 258 256 256 257 261 260 260 263 267 271 275 277 280 285 289 294 298 303 312 321 330 337 342 348 341 306 293 315 52 77 84 89 182 199 199 192 186
266 266 266 266 266 267 267 267 267 267 267 267 268 268 268 268 267 267 267 267 267 265 265 264 264 263 263 263 263 262 262 263 263 263 262 263 264 264 263 263 263 264 265 265 264 263 262 261 258 257 257 257 257 257 256 258 259 257 257 260 265 270 274 277 281 285 290 295 300 309 318 323 329 335 345 349 323 293 304 62 79 92 118 174 190 190 184 179
267 267 267 267 267 267 267 267 267 267 267 267 268 269 269 269 268 267 267 267 267 266 265 265 265 264 263 263 263 262 262 262 262 262 263 264 264 263 263 262 263 264 265 265 265 264 262 261 259 257 256 258 258 257 255 255 256 255 254 256 260 266 271 274 277 280 285 291 295 304 312 315 319 325 339 354 346 304 307 79 82 99 132 167 183 184 179 172
267 268 268 268 268 268 268 268 268 267 267 268 268 268 269 269 268 268 267 267 267 266 266 265 264 264 263 263 263 263 262 261 262 263 264 264 263 262 262 262 263 264 264 265 265 264 263 261 260 258 257 257 256 256 256 254 253 253 254 254 258 264 268 270 272 275 279 284 288 296 303 306 310 318 333 350 1 336 337 102 97 116 142 161 175 180 176 170
267 267 267 267 267 267 267 267 267 267 266 267 267 267 267 268 268 268 267 267 266 266 266 265 264 264 263 263 264 263 262 262 263 263 264 264 263 262 262 263 263 263 263 263 263 263 264 263 262 261 260 258 257 257 256 253 251 253 255 254 257 262 265 267 268 270 273 276 281 288 293 298 304 314 327 342 0 7 152 127 124 136 150 161 172 177 178 175
267 267 267 267 266 266 266 266 266 266 265 265 265 266 266 266 267 267 267 267 266 266 266 265 265 264 264 264 265 264 264 264 264 264 264 265 264 264 264 263 263 262 262 262 262 263 263 263 263 262 260 257 255 253 252 252 252 254 254 253 254 257 260 263 265 266 268 270 275 279 284 290 298 310 321 333 352 10 205 157 149 153 156 163 173 177 181 180
267 267 267 266 266 266 265 265 266 265 265 264 264 265 265 265 266 267 267 267 267 267 267 266 266 265 265 265 266 266 265 266 266 266 266 266 266 265 265 264 263 262 262 261 262 262 262 262 260 257 255 254 253 252 253 255 255 254 253 252 250 252 255 258 262 263 263 264 267 270 275 281 290 305 316 324 341 359 262 184 171 167 166 169 179 181 187 186
268 268 268 268 267 266 265 265 265 265 265 264 264 264 264 264 265 266 267 267 267 267 267 267 267 267 266 265 266 267 267 267 267 266 266 266 266 266 265 265 264 262 261 261 261 259 258 256 255 254 254 254 254 254 255 257 256 253 252 250 247 248 249 251 256 259 258 258 260 262 266 272 280 295 307 314 331 345 252 196 183 177 177 178 184 189 194 194
268 268 268 268 267 266 265 264 264 265 264 264 263 263 264 264 264 265 266 267 267 267 267 267 267 267 266 265 266 267 268 267 266 265 265 265 267 266 264 263 263 261 261 261 259 257 254 253 254 256 257 256 255 255 255 255 255 252 249 247 244 244 244 244 250 255 254 254 255 257 261 266 271 282 294 301 315 326 245 201 193 184 188 188 192 199 202 202
268 268 268 268 267 266 265 264 264 264 264 264 264 263 263 263 263 263 265 267 267 267 267 267 266 267 266 265 265 266 266 265 264 264 265 265 265 263 262 261 260 261 261 260 258 256 254 254 255 257 256 255 253 252 251 251 251 249 246 244 242 241 240 239 244 250 252 251 251 254 257 263 265 268 280 285 293 303 256 202 197 196 205 200 197 204 206 208
268 268 268 268 267 266 265 264 264 264 264 264 264 263 263 263 263 263 263 265 266 265 265 265 265 265 265 263 263 264 264 263 263 263 262 260 259 259 261 260 259 261 261 257 256 256 255 255 254 254 253 252 250 248 247 247 247 245 243 241 239 238 237 236 239 245 249 248 247 250 252 258 260 256 264 272 279 286 261 204 205 216 225 213 200 201 207 209
268 268 268 268 268 267 266 265 264 263 263 264 264 264 263 263 263 263 262 262 264 263 262 263 263 263 263 263 262 261 259 260 261 259 258 257 256 257 258 259 260 260 257 254 254 255 256 255 254 253 252 250 249 248 247 246 244 243 241 239 238 238 237 236 236 240 246 248 246 247 247 252 256 249 249 261 268 271 254 213 220 231 233 221 203 196 200 207
267 267 267 267 267 267 266 265 264 263 263 262 263 263 263 262 262 261 261 260 261 261 260 260 260 261 262 262 260 257 256 258 257 256 257 258 256 254 254 257 259 255 252 252 253 254 255 255 253 251 250 249 248 247 246 245 244 243 241 240 240 240 239 237 236 236 242 247 246 246 247 248 250 244 240 249 255 257 248 221 222 230 229 221 203 188 190 200
266 266 265 265 265 266 266 265 264 263 262 262 261 261 261 261 261 260 260 259 258 258 259 258 257 259 261 261 259 256 255 254 254 255 257 257 254 251 249 249 250 249 249 250 250 250 251 251 250 248 248 249 248 246 245 244 244 243 241 241 243 243 241 238 236 235 238 244 246 248 248 246 246 242 237 241 244 247 247 227 218 219 216 210 193 177 179 191
267 266 265 265 264 265 265 265 264 263 262 261 261 260 260 259 259 259 258 257 256 255 257 257 256 256 258 259 258 256 252 249 252 255 253 251 251 249 246 243 243 244 245 247 246 244 247 250 249 247 247 248 246 245 246 246 246 244 243 244 244 244 241 238 237 235 236 241 245 248 249 246 244 240 235 237 237 237 243 234 218 214 206 195 182 169 170 184
267 266 265 265 264 264 264 264 264 263 261 261 260 259 259 259 258 257 256 255 254 253 253 255 256 255 253 254 255 255 252 247 248 251 250 248 250 249 245 240 237 238 241 243 241 242 247 249 245 244 245 244 243 245 247 247 246 245 244 244 243 242 241 238 235 233 234 237 241 244 245 243 240 237 234 235 234 230 235 236 222 213 203 189 176 164 161 175
267 265 264 264 264 263 262 263 263 263 261 260 259 258 258 258 257 256 255 254 253 252 250 252 254 254 251 250 250 251 251 247 243 245 246 247 246 245 242 238 234 234 238 237 235 239 242 240 238 238 238 238 241 244 245 244 244 245 245 242 241 239 238 235 230 229 229 230 235 238 238 238 236 234 232 231 230 225 226 234 225 210 202 191 178 164 156 162
267 266 264 263 263 262 262 261 261 262 261 260 258 258 257 256 256 255 254 254 252 250 248 249 250 251 250 248 247 247 247 246 242 240 240 242 243 241 239 238 236 234 234 233 232 235 235 232 231 230 231 235 240 243 241 241 243 244 243 242 240 238 237 233 227 226 224 225 231 230 229 234 233 230 231 228 227 222 220 228 227 213 201 193 184 171 158 155
267 266 265 264 263 262 261 260 260 260 260 259 258 257 256 255 254 254 254 253 250 248 248 247 247 248 248 247 246 244 243 243 242 240 237 237 239 240 238 237 236 233 231 229 229 231 230 226 224 225 230 235 239 239 237 239 241 241 241 240 240 239 237 233 227 223 220 224 228 224 224 232 232 228 229 226 222 221 218 222 227 221 208 197 191 183 170 161
267 266 265 264 263 262 261 260 259 258 258 258 258 256 255 254 252 252 252 249 248 248 247 246 245 244 244 244 244 243 241 240 240 240 237 234 235 237 237 235 233 230 227 224 224 228 228 224 221 225 233 237 237 237 235 234 236 238 240 240 240 238 236 233 228 222 220 225 227 223 224 232 233 230 229 224 221 221 219 219 223 225 216 203 197 191 182 174
267 266 265 264 262 262 261 260 260 258 257 256 256 255 254 253 252 250 249 247 246 247 246 243 243 242 242 242 242 241 240 238 238 238 237 234 232 233 235 235 233 231 228 226 227 229 229 228 226 228 234 237 235 234 230 227 234 240 241 242 241 238 235 232 227 222 222 226 227 224 226 233 235 235 231 226 224 223 221 219 219 224 222 211 204 198 192 186
267 266 265 263 262 261 260 259 259 258 257 256 255 254 253 253 251 248 246 245 245 245 243 242 241 240 240 240 240 240 239 237 236 235 235 234 231 231 232 233 233 231 228 228 229 230 229 230 229 228 231 234 233 233 230 230 238 243 242 239 235 232 231 230 227 224 224 226 226 224 225 232 235 234 231 227 225 224 223 221 218 221 224 219 211 206 200 195
267 266 264 263 262 261 260 259 258 257 257 256 255 253 252 251 250 247 245 244 243 242 241 240 239 238 238 238 238 238 238 237 235 234 233 232 231 230 230 230 230 229 227 226 227 227 227 228 229 227 228 231 232 232 232 233 235 238 235 225 224 228 231 231 229 227 226 226 225 221 224 232 234 231 231 229 226 225 223 221 219 217 221 222 218 214 208 203
267 266 264 263 262 261 260 258 257 256 255 255 254 253 251 250 248 246 244 243 242 241 240 238 237 237 237 236 237 237 237 237 236 233 232 231 230 229 230 229 229 228 228 228 227 228 227 227 229 230 229 230 231 231 232 231 230 233 226 212 219 230 230 227 227 226 225 223 220 217 221 232 234 230 230 230 228 227 224 222 221 217 216 219 222 219 214 209
266 266 264 263 262 261 260 258 257 256 255 254 253 252 251 249 247 246 244 242 241 240 239 238 237 236 236 235 235 236 236 236 235 234 231 230 229 229 230 230 230 229 229 229 229 230 230 230 232 234 232 232 233 235 235 232 231 231 221 213 221 227 219 218 220 219 221 219 218 216 218 228 233 229 227 226 225 225 224 222 222 219 215 216 221 223 218 214
266 265 264 263 262 261 260 259 257 256 255 254 253 252 250 249 247 246 243 241 239 238 238 237 236 236 235 234 234 234 235 235 235 234 232 230 228 228 229 230 230 229 228 228 228 228 229 230 232 232 232 232 234 235 234 230 227 225 221 217 218 212 205 211 212 213 218 219 217 217 218 224 230 227 225 225 223 223 224 223 222 220 216 215 219 222 221 218
267 266 265 264 262 261 260 259 258 256 255 254 253 252 250 249 247 245 243 241 239 238 237 237 236 235 235 234 233 233 234 234 234 234 233 231 229 228 228 229 229 229 228 228 227 226 226 228 228 227 227 228 229 229 227 224 221 220 218 214 208 201 199 204 206 205 212 217 216 216 217 222 226 228 227 227 226 225 224 224 223 221 219 218 219 220 221 222
269 267 266 265 263 261 260 259 258 257 255 254 252 251 250 249 247 245 243 241 239 237 236 236 236 235 234 233 232 232 232 233 233 233 233 231 229 228 228 228 228 228 228 228 227 226 225 226 227 227 226 225 224 223 221 219 218 217 213 207 202 198 199 203 201 199 206 214 217 218 218 221 226 229 229 229 230 229 227 227 226 223 222 223 223 222 221 222
270 268 266 265 263 262 260 259 258 257 256 254 253 251 250 248 247 246 243 241 239 237 235 234 235 234 234 233 231 231 231 232 233 232 232 231 229 228 228 227 227 226 226 228 227 226 225 225 226 228 227 224 222 220 218 216 215 214 211 206 202 200 202 204 202 201 205 212 217 220 220 220 224 228 229 229 230 230 229 229 229 228 227 228 229 228 225 224
271 268 266 264 262 261 259 257 256 256 255 254 253 252 250 248 246 246 244 241 239 238 236 234 233 233 233 232 231 230 230 231 232 231 231 231 229 228 228 227 227 226 225 227 227 226 226 224 225 228 227 223 220 220 219 216 214 213 210 207 203 200 199 198 200 203 204 208 216 224 222 218 221 227 228 229 229 229 228 228 229 229 229 230 231 231 230 228
273 270 267 264 262 260 257 255 253 252 252 252 252 251 250 249 247 245 244 242 240 238 236 234 233 232 233 232 231 230 229 230 230 231 230 230 229 228 227 227 227 226 225 226 226 226 226 224 224 225 226 223 219 219 219 217 214 211 208 206 201 197 195 194 199 202 201 203 210 223 224 216 214 221 224 227 228 228 228 226 226 227 228 228 229 229 229 229
275 272 268 264 261 259 257 254 251 249 248 248 249 249 249 248 247 245 244 242 240 238 237 235 234 232 231 232 231 230 229 229 229 229 229 229 228 227 227 227 227 226 225 225 225 225 225 225 224 225 226 224 221 219 219 219 216 211 207 205 200 197 195 195 199 196 192 197 200 217 227 215 207 213 215 218 224 226 227 227 226 226 227 228 228 228 229 229
276 273 270 266 262 259 256 253 251 248 246 245 245 245 245 245 246 246 244 242 240 238 237 235 234 232 231 231 231 231 230 229 229 228 229 228 228 227 226 226 226 226 225 225 225 225 225 225 225 225 226 226 224 221 220 220 217 212 209 207 204 202 198 196 196 186 183 195 198 215 228 218 208 211 210 211 217 221 225 227 227 227 227 229 230 230 231 231
277 274 271 268 264 260 257 253 250 247 245 244 242 241 242 242 242 243 244 243 240 238 236 235 233 232 231 230 230 230 230 230 229 228 227 228 227 227 226 226 226 226 225 225 225 225 225 224 224 225 225 225 225 222 219 218 216 212 211 209 207 206 202 199 193 183 185 197 198 214 229 223 215 213 211 210 212 216 221 224 226 228 228 230 232 233 233 234
279 275 271 268 264 260 257 254 250 247 244 243 241 239 238 239 239 239 241 242 241 238 236 235 233 232 231 230 229 229 230 230 229 228 227 227 227 227 226 225 225 225 225 225 224 225 225 224 224 224 224 224 224 223 220 218 216 213 212 211 209 208 206 200 192 189 196 198 194 211 227 227 221 216 214 215 212 213 219 221 223 226 227 229 231 233 234 235
282 277 273 270 265 261 257 254 250 247 243 241 240 238 236 236 236 236 237 238 240 239 235 234 233 232 230 230 229 228 229 230 229 229 227 226 226 227 226 226 225 224 224 224 224 224 225 224 223 223 224 223 224 224 222 219 216 214 212 211 211 209 207 201 195 199 203 198 199 213 223 231 231 221 214 217 216 215 217 218 219 220 221 225 228 231 234 235
285 281 276 271 266 261 256 253 249 246 244 241 239 237 235 234 234 234 234 235 237 238 237 233 232 232 230 229 229 228 228 229 229 229 228 227 226 226 226 226 225 225 224 223 223 224 224 224 223 223 223 223 223 224 223 220 217 214 213 212 212 211 208 204 201 204 205 202 209 219 222 232 241 234 221 214 212 211 209 209 210 210 211 216 221 226 231 234
289 284 278 272 267 262 258 253 248 245 243 241 238 236 234 232 232 232 232 233 233 235 236 234 231 230 230 229 228 228 228 228 229 229 228 227 226 226 226 226 226 225 224 224 223 223 224 224 223 222 222 223 223 223 224 222 218 215 214 213 213 213 211 208 206 207 206 206 215 223 222 227 238 242 235 220 207 204 202 202 206 208 207 210 214 221 227 232
292 287 282 274 268 264 260 255 250 245 243 241 239 236 234 232 230 229 230 231 231 232 234 234 231 229 229 229 228 228 228 228 228 229 229 228 227 226 226 226 226 225 225 224 223 223 223 223 223 223 222 222 223 223 223 223 220 217 215 214 214 214 213 212 210 209 208 208 216 223 223 224 228 233 236 228 213 204 203 202 206 210 211 211 213 218 224 228
294 290 285 278 271 265 260 256 252 247 243 241 239 237 234 231 230 228 228 229 230 230 231 233 232 229 228 228 227 227 227 227 228 228 229 229 228 227 226 226 226 226 225 225 224 223 223 223 223 223 222 222 223 223 223 223 222 219 216 216 215 215 215 214 213 212 212 212 216 220 223 226 227 229 234 234 224 214 210 208 208 212 216 217 217 218 221 225